GW1774 Weather Reports


time (UTC)temp
F
wind
direction
speed
knots
gust
knots
rain 1hr
in
rain 24hr
in
rain mn
in
humidity
%
barometer
mb
20260906114003 73 342 0.0 0.9 0.00 0.00 0.00 93 1011.2
20260906113217 72 343 0.0 0.9 0.00 0.00 0.00 93 1011.2
20260906112217 72 332 0.0 0.9 0.00 0.00 0.00 93 1011.2
20260906111217 72 335 0.0 0.9 0.00 0.00 0.00 94 1011.2
20260906110216 72 337 0.0 0.9 0.00 0.00 0.00 94 1010.9
20260906105216 72 0 0.0 0.0 0.00 0.00 0.00 94 1010.9
20260906104216 72 0 0.0 0.0 0.00 0.00 0.00 95 1010.9
20260906103003 72 0 0.0 0.0 0.00 0.00 0.00 95 1010.9
20260906102003 72 0 0.0 0.0 0.00 0.00 0.00 95 1010.5
20260906101003 72 0 0.0 0.0 0.00 0.00 0.00 95 1010.5
20260906100003 72 0 0.0 0.0 0.00 0.00 0.00 95 1010.5
20260906095003 72 0 0.0 0.0 0.00 0.00 0.00 96 1010.2
20260906094003 71 0 0.0 0.0 0.00 0.00 0.00 96 1010.2
20260906093003 71 0 0.0 0.0 0.00 0.00 0.00 96 1010.2
20260906092003 71 0 0.0 0.0 0.00 0.00 0.00 96 1009.5
20260906091003 71 0 0.0 0.0 0.00 0.00 0.00 96 1009.8
20260906090003 71 0 0.0 0.0 0.00 0.00 0.00 96 1009.5
20260906085003 71 0 0.0 0.0 0.00 0.00 0.00 96 1009.5
20260906084003 71 0 0.0 0.0 0.00 0.00 0.00 96 1009.5
20260906083003 71 0 0.0 0.0 0.00 0.00 0.00 96 1009.5
20260906082003 71 0 0.0 0.0 0.00 0.00 0.00 96 1009.8
20260906081003 71 342 0.0 0.9 0.00 0.00 0.00 96 1009.5
20260906080003 71 0 0.0 0.0 0.00 0.00 0.00 96 1009.5
20260906075003 71 0 0.0 0.0 0.00 0.00 0.00 96 1009.2
20260906074003 70 0 0.0 0.0 0.00 0.00 0.00 96 1008.8
20260906073003 70 0 0.0 0.0 0.00 0.00 0.00 96 1008.8
20260906072003 70 0 0.0 0.0 0.00 0.00 0.00 96 1009.2
20260906071003 70 0 0.0 0.0 0.00 0.00 0.00 96 1009.2
20260906070003 70 0 0.0 0.0 0.00 0.00 0.00 96 1008.8
20260906065003 70 0 0.0 0.0 0.00 0.00 0.00 96 1009.2
20260906064003 70 0 0.0 0.0 0.00 0.00 0.00 96 1009.5
20260906063003 70 0 0.0 0.0 0.00 0.00 0.00 96 1009.5
20260906062003 70 0 0.0 0.0 0.00 0.00 0.00 96 1009.2
20260906061003 70 0 0.0 0.0 0.00 0.00 0.00 96 1009.2
20260906060003 70 0 0.0 0.0 0.00 0.00 0.00 95 1009.5
20260906055003 71 0 0.0 0.0 0.00 0.00 0.00 95 1009.5
20260906054003 71 0 0.0 0.0 0.00 0.00 0.00 95 1009.5
20260906053003 71 0 0.0 0.0 0.00 0.00 0.00 95 1009.8
20260906052003 71 0 0.0 0.0 0.00 0.00 0.00 95 1009.8
20260906051003 71 0 0.0 0.0 0.00 0.00 0.00 95 1010.2
20260906050003 71 0 0.0 0.0 0.00 0.00 0.00 95 1010.2
20260906045003 71 0 0.0 0.0 0.00 0.00 0.00 95 1010.2
20260906044003 71 0 0.0 0.0 0.00 0.00 0.00 95 1010.2
20260906043003 72 0 0.0 0.0 0.00 0.00 0.00 95 1010.5
20260906042003 72 0 0.0 0.0 0.00 0.00 0.00 95 1010.5
20260906041003 72 0 0.0 0.0 0.00 0.00 0.00 95 1010.2
20260906040003 72 0 0.0 0.0 0.00 0.00 0.00 94 1010.5
20260906035003 72 0 0.0 0.0 0.00 0.00 0.00 94 1010.2
20260906034003 72 0 0.0 0.0 0.00 0.00 0.00 94 1010.5
20260906033003 72 0 0.0 0.0 0.00 0.00 0.00 94 1010.5
20260906032003 72 0 0.0 0.0 0.00 0.00 0.00 94 1010.5
20260906031003 72 0 0.0 0.0 0.00 0.00 0.00 94 1010.2
20260906030003 72 0 0.0 0.0 0.00 0.00 0.00 94 1010.2
20260906025003 73 0 0.0 0.0 0.00 0.00 0.00 93 1010.2
20260906024003 73 0 0.0 0.0 0.00 0.00 0.00 93 1009.8
20260906023003 73 0 0.0 0.0 0.00 0.00 0.00 93 1010.5
20260906022003 73 0 0.0 0.0 0.00 0.00 0.00 92 1009.8
20260906021003 73 0 0.0 0.0 0.00 0.00 0.00 92 1009.8
20260906020003 73 0 0.0 0.0 0.00 0.00 0.00 92 1009.5
20260906015003 74 0 0.0 0.0 0.00 0.00 0.00 92 1009.5
20260906014003 74 0 0.0 0.0 0.00 0.00 0.00 91 1010.2
20260906013003 74 0 0.0 0.0 0.00 0.00 0.00 90 1009.8
20260906012003 74 0 0.0 0.0 0.00 0.00 0.00 90 1009.8
20260906011003 74 0 0.0 0.0 0.00 0.00 0.00 90 1009.8
20260906010003 75 0 0.0 0.0 0.00 0.00 0.00 89 1009.5
20260906005003 75 0 0.0 0.0 0.00 0.00 0.00 89 1009.5
20260906004003 75 0 0.0 0.0 0.00 0.00 0.00 89 1009.5
20260906003003 75 0 0.0 0.0 0.00 0.00 0.00 88 1009.5
20260906002003 76 0 0.0 0.0 0.00 0.00 0.00 88 1009.2
20260906001003 75 0 0.0 0.0 0.00 0.00 0.00 88 1008.8
20260906000003 76 0 0.0 0.0 0.00 0.00 0.00 87 1008.8
20260905235003 76 0 0.0 0.0 0.00 0.00 0.00 86 1008.8
20260905234003 76 0 0.0 0.0 0.00 0.00 0.00 85 1008.8
20260905233003 77 60 0.0 0.9 0.00 0.00 0.00 84 1008.5
20260905232003 77 59 0.0 0.9 0.00 0.00 0.00 83 1008.5
20260905231003 77 57 0.0 0.9 0.00 0.00 0.00 83 1008.5
20260905230003 78 57 0.0 0.9 0.00 0.00 0.00 81 1008.1
20260905225003 78 55 0.0 1.7 0.00 0.00 0.00 81 1008.1
20260905224003 78 37 0.0 0.9 0.00 0.00 0.00 79 1008.1
20260905223003 78 33 0.0 0.9 0.00 0.00 0.00 78 1008.1
20260905222003 78 33 0.0 0.9 0.00 0.00 0.00 79 1008.1
20260905221003 78 43 0.0 0.9 0.00 0.00 0.00 79 1008.5
20260905220003 78 47 0.9 2.6 0.00 0.00 0.00 80 1008.5
20260905215003 78 37 0.9 1.7 0.00 0.00 0.00 78 1008.5
20260905214003 78 62 0.9 2.6 0.00 0.00 0.00 80 1008.5
20260905213003 79 50 0.9 3.5 0.00 0.00 0.00 78 1008.1
20260905212003 79 40 0.0 0.9 0.00 0.00 0.00 78 1008.1
20260905211003 79 38 0.0 0.9 0.00 0.00 0.00 78 1008.1
20260905210003 79 38 0.0 0.9 0.00 0.00 0.00 78 1007.8
20260905205003 79 0 0.0 0.0 0.00 0.00 0.00 78 1008.1
20260905204003 79 39 0.0 1.7 0.00 0.00 0.00 78 1008.1
20260905203003 80 36 0.0 0.9 0.00 0.00 0.00 76 1008.5
20260905202003 81 0 0.0 0.0 0.00 0.00 0.00 75 1007.8
20260905201003 81 38 0.0 0.9 0.00 0.00 0.00 72 1008.1
20260905200003 82 48 0.0 1.7 0.00 0.00 0.00 68 1008.5
20260905195003 85 55 0.9 2.6 0.00 0.00 0.00 64 1008.8
20260905194003 87 21 0.9 2.6 0.00 0.00 0.00 61 1009.2
20260905193003 89 67 0.9 7.0 0.00 0.00 0.00 60 1008.5
20260905192003 91 64 0.0 0.9 0.00 0.00 0.00 58 1008.1
20260905191003 92 67 0.0 1.7 0.00 0.00 0.00 56 1007.8
20260905190003 94 68 0.9 1.7 0.00 0.00 0.00 53 1007.8
20260905185003 95 63 0.9 2.6 0.00 0.00 0.00 50 1007.4
20260905184003 96 77 0.9 3.5 0.00 0.00 0.00 48 1007.8
20260905183003 97 57 0.9 2.6 0.00 0.00 0.00 45 1008.1
20260905182003 99 71 0.9 3.5 0.00 0.00 0.00 45 1008.1
20260905181003 98 93 0.9 3.5 0.00 0.00 0.00 46 1008.1
20260905180003 97 67 0.9 2.6 0.00 0.00 0.00 47 1008.5
20260905175003 98 68 0.9 3.5 0.00 0.00 0.00 47 1008.5
20260905174003 98 61 0.9 3.5 0.00 0.00 0.00 47 1008.8
20260905173003 98 66 0.9 2.6 0.00 0.00 0.00 48 1009.2
20260905172003 97 43 0.9 2.6 0.00 0.00 0.00 48 1009.5
20260905171003 98 350 0.9 1.7 0.00 0.00 0.00 49 1009.8
20260905170003 97 238 0.9 2.6 0.00 0.00 0.00 50 1009.5
20260905165003 97 49 0.9 1.7 0.00 0.00 0.00 48 1009.8
20260905164003 96 49 0.9 2.6 0.00 0.00 0.00 49 1010.2
20260905163217 96 57 0.9 1.7 0.00 0.00 0.00 49 1010.2
20260905162217 95 73 0.9 2.6 0.00 0.00 0.00 53 1010.2
20260905161217 96 330 0.9 3.5 0.00 0.00 0.00 48 1010.5
20260905160217 95 40 0.9 2.6 0.00 0.00 0.00 50 1010.5
20260905155217 95 46 0.9 1.7 0.00 0.00 0.00 52 1010.5
20260905154217 95 44 0.9 1.7 0.00 0.00 0.00 56 1010.5
20260905153003 93 56 0.9 1.7 0.00 0.00 0.00 54 1010.9
20260905152003 92 58 0.9 1.7 0.00 0.00 0.00 58 1010.9
20260905151003 91 14 0.9 1.7 0.00 0.00 0.00 59 1011.2
20260905150003 91 56 0.9 1.7 0.00 0.00 0.00 58 1010.9
20260905145003 90 63 0.9 1.7 0.00 0.00 0.00 62 1011.2
20260905144003 88 88 0.9 1.7 0.00 0.00 0.00 63 1011.2
20260905143003 85 52 0.9 0.9 0.00 0.00 0.00 72 1011.2
20260905142003 84 253 0.0 1.7 0.00 0.00 0.00 72 1011.2
20260905141003 84 222 0.0 1.7 0.00 0.00 0.00 74 1011.2
20260905140003 83 41 0.9 3.5 0.00 0.00 0.00 73 1010.9
20260905135003 82 50 0.0 1.7 0.00 0.00 0.00 77 1010.5
20260905134003 81 313 0.0 1.7 0.00 0.00 0.00 80 1010.9
20260905133003 80 42 0.0 1.7 0.00 0.00 0.00 82 1010.9
20260905132003 80 1 0.0 1.7 0.00 0.00 0.00 82 1011.2
20260905131003 78 333 0.0 0.9 0.00 0.00 0.00 85 1011.2
20260905130004 77 335 0.0 0.9 0.00 0.00 0.00 86 1010.9
20260905125003 76 332 0.0 0.9 0.00 0.00 0.00 90 1011.2
20260905124003 75 325 0.0 1.7 0.00 0.00 0.00 90 1011.2
20260905123003 74 0 0.0 0.0 0.00 0.00 0.00 92 1011.2
20260905122003 74 0 0.0 0.0 0.00 0.00 0.00 92 1011.2
20260905121003 73 0 0.0 0.0 0.00 0.00 0.00 93 1011.2
20260905120003 73 0 0.0 0.0 0.00 0.00 0.00 94 1011.2
20260905115003 72 0 0.0 0.0 0.00 0.00 0.00 94 1011.2